This demonstration page uses our WeatherBlox Daily Observations layout. Learn more.

Left ArrowRight Arrow

Hourly Observations for July 25, 2015

Temp ( °F °C ) Dew Point ( °F °C ) Humidity (%) Winds ( mph kmh ) Pressure ( in mb ) Visibility ( mi km ) Precip ( " mm )
12:15 am 00:15 Clear 72 22 66 19 83 83 S 6 9 30.00 1016 10 16 N/A
12:35 am 00:35 Clear 70 21 66 19 88 88 N N/A 30.00 1016 10 16 N/A
12:55 am 00:55 Clear 70 21 66 19 88 88 N N/A 30.00 1016 10 16 N/A
1:15 am 01:15 Clear 68 20 64 18 88 88 WSW 5 7 30.00 1016 10 16 N/A
1:35 am 01:35 Clear 68 20 66 19 94 94 N N/A 30.00 1016 10 16 N/A
1:55 am 01:55 Clear 70 21 66 19 88 88 SSW 5 7 30.00 1016 10 16 N/A
2:15 am 02:15 Clear 70 21 66 19 88 88 N N/A 30.00 1016 10 16 N/A
2:35 am 02:35 Clear 68 20 64 18 88 88 N N/A 30.00 1016 10 16 N/A
2:55 am 02:55 Clear 64 18 64 18 100 100 N N/A 30.00 1016 10 16 N/A
3:15 am 03:15 Clear 64 18 64 18 100 100 N N/A 29.97 1015 10 16 N/A
3:35 am 03:35 Clear 66 19 64 18 94 94 N N/A 29.97 1015 10 16 N/A
3:55 am 03:55 Partly Cloudy 68 20 66 19 94 94 N 3 6 29.97 1015 10 16 N/A
4:15 am 04:15 Partly Cloudy 66 19 64 18 94 94 N N/A 29.97 1015 10 16 N/A
4:35 am 04:35 Partly Cloudy 64 18 64 18 100 100 N N/A 29.97 1015 10 16 N/A
4:55 am 04:55 Mostly Cloudy 64 18 64 18 100 100 NNW 3 6 30.00 1016 10 16 N/A
5:15 am 05:15 Mostly Cloudy 64 18 64 18 100 100 NW 3 6 30.00 1016 10 16 N/A
5:35 am 05:35 Mostly Cloudy 66 19 66 19 100 100 N N/A 30.00 1016 10 16 N/A
5:55 am 05:55 Partly Cloudy 64 18 64 18 100 100 N N/A 30.00 1016 10 16 N/A
6:15 am 06:15 Mostly Cloudy 64 18 64 18 100 100 N N/A 30.00 1016 10 16 N/A
6:35 am 06:35 Partly Cloudy 64 18 64 18 100 100 N N/A 30.00 1016 10 16 N/A
6:55 am 06:55 Sunny 64 18 64 18 100 100 N N/A 30.00 1016 10 16 N/A
7:15 am 07:15 Partly Cloudy 68 20 66 19 94 94 N N/A 30.00 1016 10 16 N/A
7:35 am 07:35 Sunny 70 21 68 20 94 94 N N/A 30.00 1016 10 16 N/A
7:55 am 07:55 Mostly Cloudy 72 22 70 21 94 94 NW 5 7 30.03 1017 10 16 N/A
8:15 am 08:15 Mostly Cloudy 72 22 68 20 88 88 NW 6 9 30.03 1017 10 16 N/A
8:35 am 08:35 Sunny 72 22 68 20 88 88 NW 3 6 30.03 1017 10 16 N/A
8:55 am 08:55 Partly Cloudy 75 24 68 20 78 78 WNW 3 6 30.03 1017 10 16 N/A
9:15 am 09:15 Sunny 77 25 66 19 69 69 WNW 6 9 30.03 1017 10 16 N/A
9:35 am 09:35 Sunny 77 25 66 19 69 69 SW 3 6 30.03 1017 10 16 N/A
9:55 am 09:55 Sunny 79 26 68 20 70 70 N N/A 30.03 1017 10 16 N/A
10:15 am 10:15 Sunny 79 26 66 19 65 65 N 3 6 30.03 1017 10 16 N/A
10:35 am 10:35 Partly Cloudy 81 27 66 19 62 62 SSW 6 9 30.03 1017 10 16 N/A
10:55 am 10:55 Partly Cloudy 81 27 66 19 62 62 W 5 7 30.03 1017 10 16 N/A
11:15 am 11:15 Sunny 82 28 68 20 62 62 SE 3 6 30.03 1017 10 16 N/A
11:35 am 11:35 Partly Cloudy 82 28 68 20 62 62 SW 6 9 30.03 1017 10 16 N/A
11:55 am 11:55 Partly Cloudy 82 28 68 20 62 62 SW 6 9 30.03 1017 10 16 N/A
12:15 pm 12:15 Sunny 84 29 66 19 55 55 S 6 9 30.00 1016 10 16 N/A
12:35 pm 12:35 Sunny 84 29 68 20 58 58 WSW 3 6 30.00 1016 10 16 N/A
12:55 pm 12:55 Sunny 86 30 68 20 55 55 W 8 13 30.00 1016 10 16 N/A
1:15 pm 13:15 Sunny 86 30 64 18 49 49 WNW 9 15 30.00 1016 10 16 N/A
1:35 pm 13:35 Sunny 86 30 64 18 49 49 NNW 3 6 30.00 1016 10 16 N/A
1:55 pm 13:55 Sunny 88 31 66 19 49 49 WSW 7 11 29.97 1015 10 16 N/A
2:15 pm 14:15 Sunny 88 31 63 17 43 43 S 8 13 29.97 1015 10 16 N/A
2:35 pm 14:35 Sunny 90 32 63 17 41 41 SW 6 9 29.97 1015 10 16 N/A
2:55 pm 14:55 Sunny 90 32 61 16 38 38 W 5 7 29.97 1015 10 16 N/A
3:15 pm 15:15 Sunny 90 32 63 17 41 41 WNW 9 15 29.97 1015 10 16 N/A
3:35 pm 15:35 Sunny 90 32 63 17 41 41 WSW 5 7 29.94 1014 10 16 N/A
3:55 pm 15:55 Sunny 90 32 64 18 43 43 S 6 9 29.94 1014 10 16 N/A
4:15 pm 16:15 Sunny 90 32 64 18 43 43 WNW 8 13 29.94 1014 10 16 N/A
4:35 pm 16:35 Sunny 90 32 64 18 43 43 WSW 3 6 29.94 1014 10 16 N/A
4:55 pm 16:55 Sunny 90 32 63 17 41 41 N N/A 29.94 1014 10 16 N/A
5:15 pm 17:15 Sunny 90 32 63 17 41 41 N N/A 29.94 1014 10 16 N/A
5:35 pm 17:35 Sunny 88 31 63 17 43 43 N N/A 29.94 1014 10 16 N/A
5:55 pm 17:55 Sunny 90 32 64 18 43 43 SSW 3 6 29.91 1013 10 16 N/A
6:15 pm 18:15 Sunny 90 32 63 17 41 41 N N/A 29.91 1013 10 16 N/A
6:35 pm 18:35 Sunny 88 31 63 17 43 43 SSW 3 6 29.91 1013 10 16 N/A
6:55 pm 18:55 Sunny 88 31 64 18 46 46 SSW 5 7 29.91 1013 10 16 N/A
7:15 pm 19:15 Sunny 88 31 68 20 52 52 SSW 5 7 29.91 1013 10 16 N/A
7:35 pm 19:35 Sunny 86 30 70 21 59 59 S 10 17 29.94 1014 10 16 N/A
7:55 pm 19:55 Sunny 84 29 70 21 62 62 S 8 13 29.97 1015 10 16 N/A
8:15 pm 20:15 Sunny 82 28 70 21 66 66 S 8 13 29.97 1015 10 16 N/A
8:35 pm 20:35 Clear 81 27 70 21 70 70 S 6 9 29.97 1015 10 16 N/A
8:55 pm 20:55 Clear 81 27 70 21 70 70 S 6 9 29.97 1015 10 16 N/A
9:15 pm 21:15 Clear 81 27 70 21 70 70 S 7 11 29.97 1015 10 16 N/A
9:35 pm 21:35 Clear 79 26 70 21 74 74 S 7 11 29.97 1015 10 16 N/A
9:55 pm 21:55 Clear 79 26 70 21 74 74 S 7 11 30.00 1016 10 16 N/A
10:15 pm 22:15 Clear 79 26 70 21 74 74 S 9 15 30.00 1016 10 16 N/A
10:35 pm 22:35 Clear 79 26 70 21 74 74 S 13 20 30.00 1016 10 16 N/A
10:55 pm 22:55 Clear 79 26 70 21 74 74 S 12 19 30.00 1016 10 16 N/A
11:15 pm 23:15 Clear 77 25 70 21 79 79 SSW 12 19 30.00 1016 10 16 N/A
11:35 pm 23:35 Clear 77 25 70 21 79 79 S 10 17 30.00 1016 10 16 N/A
11:55 pm 23:55 Clear 75 24 70 21 83 83 S 9 15 30.00 1016 10 16 N/A

Powered by AerisWeather